Miscellaneous Local Product
Issued by NWS North Platte, NE

Home | Current Version | Previous Version | Graphics & Text | Print | Product List | Glossary On
Versions: 1 2 3 4 5 6 7 8 9 10 11 12 13 14 15 16 17 18 19 20 21 22 23 24 25 26 27 28 29 30 31 32 33 34 35 36 37 38 39 40 41 42 43 44 45 46 47 48 49 50
000
AXUS43 KLBF 211010
MISLBF


WESTERN AND NORTH CENTRAL NEBRASKA HOURLY WEATHER ROUNDUP
NATIONAL WEATHER SERVICE NORTH PLATTE NE
500 AM CDT MON APR 21 2014

***STATIONS NOT REPORTING VARIABLES SUCH AS SKY/WEATHER OR
PRESSURE ARE PROVIDED BY THE NEBRASKA DEPARTMENT OF
ROADS...RAWS...AND APRS NETWORKS...AND ARE NOT UNDER
NATIONAL WEATHER SERVICE QUALITY CONTROL***

...OBSERVATIONS IN AND NEAR THE EASTERN PANHANDLE OF NEBRASKA...

CITY           SKY/WX    TMP DP  RH WIND       PRES   REMARKS
PINE RIDGE     PTCLDY    37  27  67 E5        30.20R WCI  33
CHADRON        CLEAR     35  29  78 CALM      30.21R
ALLIANCE       PTCLDY    36  28  73 NW6       30.20R WCI  31
SIDNEY         MOCLDY    46  28  49 N15       30.20R
WHITECLAY        N/A     35  25  65 CALM        N/A
CRESCENT LAKE    N/A     42  27  55 W6          N/A
LISCO            N/A     51  20  29 W7          N/A
BIG SPRINGS      N/A     53  32  45 CALM        N/A
LEWELLEN         N/A     51  22  32 W5          N/A
$$

...OBSERVATIONS IN SOUTHWEST NEBRASKA AND FAR NORTHEAST COLORADO...

CITY           SKY/WX    TMP DP  RH WIND       PRES   REMARKS
WRAY           PTSUNNY   49  36  59 N9        30.12R
HOLYOKE        FAIR      46  32  57 N13       30.15R
IMPERIAL       CLEAR     47  33  58 N9        30.11R
OGALLALA       PTCLDY    52  26  37 CALM      30.15R
NORTH PLATTE   CLEAR     52  31  44 N21G28    30.06R
MCCOOK         CLEAR     53  44  71 N15       30.04R
LEXINGTON      MOCLDY    55  45  68 N9        30.05R
PAXTON           N/A     55  34  45 N12         N/A
SUTHERLAND       N/A     48  25  40 NE7         N/A
MEDICINE CREEK   N/A     51  49  92 CALM        N/A
GOTHENBURG       N/A     53  38  57 CALM        N/A
CALLAWAY         N/A     56  34  44 N12         N/A
$$

...OBSERVATIONS IN NORTH CENTRAL NEBRASKA...

CITY           SKY/WX    TMP DP  RH WIND       PRES   REMARKS
VALENTINE      CLEAR     48  27  44 N8        30.13R
THEDFORD       CLEAR     51  28  41 N12       30.13R
AINSWORTH      CLEAR     48  32  53 N10       30.10R
O`NEILL        PTCLDY    53  32  45 N16       30.03R
ORD            MOCLDY    53  42  66 N15       30.00R
BROKEN BOW     PTCLDY    50  36  58 N20       30.04R
BROWNLEE         N/A     52  27  37 W15         N/A
SPRINGVIEW       N/A     52  31  44 W5          N/A
DUNNING          N/A     52  29  42 S9          N/A
BREWSTER         N/A     53  32  45 NW10        N/A
ROSE             N/A     52  37  54 E10         N/A
NEWPORT          N/A     51  34  51 W8          N/A
COMSTOCK         N/A     55  44  67 SE10        N/A
CHAMBERS         N/A     53  34  48 N6G14       N/A
EWING            N/A     56  34  44 N8G21       N/A
$$

...SOME WEATHER OBSERVATIONS FROM AROUND THE REGION...

CITY           SKY/WX    TMP DP  RH WIND       PRES   REMARKS
DENVER         PTCLDY    45  35  68 NW8       30.27R
LARAMIE        CLEAR     34  27  75 S5        30.28R WCI  30
CHEYENNE       CLEAR     40  28  62 NW7       30.27R
SCOTTSBLUFF    MOCLDY    49  25  39 CALM      30.24R
RAPID CITY     CLEAR     35  21  56 NW9       30.20R WCI  28
PIERRE         CLEAR     42  27  55 NW10      30.11R
WINNER         FAIR      43  29  57 NW8       30.11R
SIOUX FALLS    CLOUDY    57  48  72 N18G25    29.92R
OMAHA          LGT RAIN  61  58  90 SE5       29.93F
GRAND ISLAND   CLOUDY    59  54  83 S6        29.96S
KANSAS CITY    DRIZZLE   61  55  81 S7        29.98S
WICHITA        CLOUDY    53  52  96 SE5       29.97F FOG
HAYS           MOCLDY    54  52  94 N7        29.98R
LIBERAL        CLEAR     55  50  82 CALM      30.00S
GOODLAND       CLEAR     48  43  82 N15       30.07R
$$



USA.gov is the U.S. government's official web portal to all federal, state and local government web resources and services.